Вернуться в каталог

UMBRA-09

АктивенНаукаSSO
NORAD 60541·PAYLOAD·🇺🇸 United States

Запущен Aug 16, 2024 с Vandenberg Space Force Base

Loading…

Ближайшие Пролёты (ближайшие 24 часа)

TLE

СвежийSource: Space-Track

Эпоха: Sep 13, 2026, 18:02 UTC

1 60541U 24149CB  26256.75205725  .00009874  00000-0  54093-3 0  9992
2 60541  97.6946 345.5391 0000377  67.1402 292.9869 15.14417698114160

Отслеживайте UMBRA-09 в реальном времени с AllMySat

Download on the App Store